Location: Bruchhof
(51.8738°N, 9.9256°E)
Time: 07:41:47
(UTC+00:00)

USA 238 - Pass Details

Date: 15 June 2024
Orbit: 920 x 1291 km, 63.4° (Epoch: 19 July)

Event Time Altitude Azimuth Distance (km) Brightness Sun altitude
Exits shadow 02:06:10 - 207° (SSW) 2,910 5.3 -6.6°
Reaches altitude 10° 02:06:48 10° 207° (SSW) 2,681 5.2 -6.5°
Maximum altitude 02:12:58 64° 127° (SE) 1,113 3.9 -5.9°
Drops below altitude 10° 02:19:42 10° 48° (NE) 2,920 7.8 -5.2°
Sets 02:22:30 0° 46° (NE) 3,937 9.5 -5.0°
